North Bennington, VT

8:20 PM EST on February 05, 2016 (GMT -0500)
Morse State

Weather History for KDDH - February, 2014

Change the Weather History Date:

Wednesday, February 5, 2014

  Actual Average Record
Temperature  
Mean Temperature 23 °F 23 °F  
Max Temperature 29 °F 33 °F 30 °F (2015)
Min Temperature 16 °F 13 °F -1 °F (2015)
Degree Days  
Heating Degree Days 42 42  
Month to date heating degree days 127 212  
Since 1 July heating degree days 4197 4343  
Cooling Degree Days 0 0  
Month to date cooling degree days 0 0  
Year to date cooling degree days 0 0  
Moisture  
Dew Point 18 °F    
Average Humidity 78    
Maximum Humidity 96    
Minimum Humidity 60    
Precipitation  
Precipitation 0.65 in 0.07 in 0.65 in (2014)
Month to date precipitation 0.71 0.33  
Year to date precipitation 3.63 3.08  
Sea Level Pressure  
Sea Level Pressure 29.88 in    
Wind  
Wind Speed 3 mph (North)    
Max Wind Speed 21 mph    
Max Gust Speed 26 mph    
Visibility 2 miles    
Events Fog , Snow    
T = Trace of Precipitation, MM = Missing Value Source: NWS Daily Summary

Daily Weather History Graph

Daily Weather History Graph

Search for Another Location

Airport or City:

Trip Planner

Search our weather history database for the weather conditions in past years. The results will help you decide how hot, cold, wet, or windy it might be!

Date:

Astronomy

Feb. 05, 2014 Rise Set
Actual Time 7:03 AM EST 5:11 PM EST
Civil Twilight 6:33 AM EST 5:41 PM EST
Nautical Twilight 5:59 AM EST 6:14 PM EST
Astronomical Twilight 5:26 AM EST 6:47 PM EST
Moon 10:05 AM EST (2/5) No Moon Set
Length of Visible Light 11h 07m
Length of Day
10h 07m
Waxing Crescent, 39% of the Moon is Illuminated
Feb 5
Waxing Crescent
Feb 6
First Quarter
Feb 14
Full
Feb 22
Last Quarter
Mar 1
New

Hourly Weather History & Observations

Time (EST) Temp. Windchill Dew Point Humidity Pressure Visibility Wind Dir Wind Speed Gust Speed Precip Events Conditions
12:54 AM 25.0 °F 20.7 °F 12.9 °F 60% 30.22 in 10.0 mi SSW 3.5 mph - N/A   Clear
1:54 AM 25.0 °F - 14.0 °F 63% 30.18 in 10.0 mi Calm Calm - N/A   Partly Cloudy
2:54 AM 25.0 °F - 15.1 °F 66% 30.20 in 10.0 mi Calm Calm - N/A   Overcast
3:32 AM 25.0 °F 20.7 °F 16.0 °F 69% 30.17 in 2.0 mi ESE 3.5 mph - 0.00 in Snow Light Snow
3:36 AM 24.1 °F 19.7 °F 17.1 °F 75% 30.17 in 0.8 mi ESE 3.5 mph - 0.00 in Snow Light Snow
3:47 AM 24.1 °F - 19.0 °F 81% 30.16 in 0.5 mi North - - 0.02 in Snow Snow
3:54 AM 23.0 °F - 19.9 °F 88% 30.18 in 0.8 mi North - - 0.03 in Snow Light Snow
4:24 AM 23.0 °F - 19.9 °F 88% 30.12 in 0.2 mi Calm Calm - 0.04 in Fog , Snow Heavy Snow
4:43 AM 23.0 °F - 19.9 °F 88% 30.12 in 0.5 mi Calm Calm - 0.09 in Fog , Snow Snow
4:54 AM 23.0 °F - 19.0 °F 85% 30.16 in 0.5 mi Calm Calm - 0.11 in Fog , Snow Snow
5:54 AM 23.0 °F - 21.0 °F 92% 30.13 in 0.5 mi Calm Calm - 0.12 in Fog , Snow Snow
6:54 AM 24.1 °F - 19.9 °F 84% 30.11 in 0.5 mi Calm Calm - 0.09 in Fog , Snow Snow
7:24 AM 24.1 °F 19.7 °F 19.9 °F 84% 30.04 in 0.2 mi Variable 3.5 mph - 0.06 in Fog , Snow Snow
7:31 AM 24.1 °F 17.0 °F 21.0 °F 88% 30.03 in 0.5 mi East 5.8 mph - 0.07 in Fog , Snow Snow
7:41 AM 24.1 °F 19.7 °F 21.0 °F 88% 30.02 in 0.2 mi ESE 3.5 mph - 0.08 in Fog , Snow Light Snow
7:54 AM 25.0 °F 18.1 °F 19.9 °F 81% 30.05 in 0.2 mi Variable 5.8 mph - 0.09 in Snow Heavy Snow
8:11 AM 25.0 °F 17.1 °F 21.0 °F 85% 30.00 in 0.2 mi East 6.9 mph - 0.02 in Fog , Snow Light Snow
8:20 AM 25.0 °F 14.8 °F 19.9 °F 81% 29.99 in 0.5 mi ESE 10.4 mph - 0.02 in Snow Snow
8:54 AM 25.0 °F 17.1 °F 21.0 °F 85% 30.01 in 0.5 mi East 6.9 mph - 0.04 in Fog , Snow Light Snow
9:04 AM 25.0 °F 17.1 °F 21.0 °F 85% 29.95 in 0.2 mi East 6.9 mph - 0.00 in Fog , Snow Light Snow
9:11 AM 25.0 °F 17.1 °F 21.0 °F 85% 29.94 in 0.5 mi Variable 6.9 mph 16.1 mph 0.01 in Fog , Snow Light Snow
9:49 AM 26.6 °F 20.0 °F 19.4 °F 74% 29.89 in 1.0 mi ESE 5.8 mph 16.1 mph 0.02 in Snow Light Snow
9:50 AM 26.1 °F 18.4 °F 19.9 °F 78% 29.93 in 1.0 mi ESE 6.9 mph 16.1 mph 0.02 in Snow Light Snow
10:03 AM 26.1 °F 19.4 °F 19.9 °F 78% 29.90 in 3.0 mi ESE 5.8 mph - 0.00 in Snow Light Snow
10:11 AM 27.0 °F 20.5 °F 19.0 °F 72% 29.89 in 5.0 mi ESE 5.8 mph - 0.00 in Snow Light Snow
10:40 AM 28.0 °F 21.7 °F 19.0 °F 69% 29.87 in 2.5 mi ENE 5.8 mph - 0.00 in Snow Light Snow
10:54 AM 28.0 °F 24.2 °F 19.9 °F 72% 29.88 in 1.8 mi East 3.5 mph - 0.00 in Snow Light Snow
11:15 AM 28.0 °F - 21.0 °F 75% 29.82 in 2.0 mi Calm Calm - 0.00 in Snow Light Snow
11:28 AM 28.0 °F 24.2 °F 21.0 °F 75% 29.79 in 4.0 mi Variable 3.5 mph - 0.00 in Snow Light Snow
11:54 AM 28.9 °F 22.8 °F 18.0 °F 64% 29.78 in 7.0 mi Variable 5.8 mph 19.6 mph 0.00 in Snow Light Snow
12:45 PM 28.0 °F 22.8 °F 19.9 °F 72% 29.68 in 2.0 mi ENE 4.6 mph - 0.01 in Snow Light Snow
12:54 PM 28.0 °F 24.2 °F 21.0 °F 75% 29.68 in 1.0 mi East 3.5 mph - 0.01 in Snow Light Snow
1:02 PM 27.0 °F 20.5 °F 21.0 °F 78% 29.67 in 0.8 mi Variable 5.8 mph - 0.01 in Snow Light Snow
1:18 PM 27.0 °F 19.5 °F 19.9 °F 75% 29.64 in 1.8 mi SE 6.9 mph - 0.01 in Snow Light Snow
1:25 PM 27.0 °F 21.6 °F 21.0 °F 78% 29.62 in 2.0 mi SE 4.6 mph - 0.01 in Snow Light Snow
1:35 PM 27.0 °F 23.0 °F 21.9 °F 81% 29.62 in 2.0 mi Variable 3.5 mph - 0.01 in Snow Light Snow
1:54 PM 27.0 °F - 21.9 °F 81% 29.63 in 1.5 mi Calm Calm - 0.02 in Snow Light Snow
2:10 PM 28.0 °F 14.6 °F 21.9 °F 78% 29.72 in 2.0 mi West 20.7 mph 25.3 mph 0.00 in Snow Light Snow
2:21 PM 27.0 °F 20.5 °F 21.9 °F 81% 29.70 in 1.0 mi NW 5.8 mph 17.3 mph 0.01 in Snow Light Snow
2:28 PM 27.0 °F 21.6 °F 23.0 °F 85% 29.70 in 0.5 mi NW 4.6 mph - 0.02 in Fog , Snow Snow
2:35 PM 27.0 °F 19.5 °F 23.0 °F 85% 29.70 in 0.2 mi NNW 6.9 mph - 0.03 in Fog , Snow Snow
2:54 PM 27.0 °F 21.6 °F 23.0 °F 85% 29.73 in 0.2 mi North 4.6 mph - 0.05 in Fog , Snow Snow
3:24 PM 26.1 °F 18.4 °F 21.9 °F 84% 29.69 in 0.5 mi North 6.9 mph - 0.02 in Fog , Snow Light Snow
3:38 PM 25.0 °F 17.1 °F 21.0 °F 85% 29.69 in 0.5 mi NNE 6.9 mph - 0.02 in Fog , Snow Light Snow
3:48 PM 24.8 °F 16.9 °F 21.2 °F 86% 29.70 in 1.0 mi North 6.9 mph - 0.02 in Snow Light Snow
3:54 PM 25.0 °F 19.3 °F 21.0 °F 85% 29.73 in 1.8 mi NNE 4.6 mph - 0.03 in Snow Light Snow
3:58 PM 25.0 °F 19.3 °F 19.9 °F 81% 29.68 in 3.0 mi ENE 4.6 mph - 0.00 in Snow Light Snow
4:54 PM 25.0 °F 19.3 °F 19.9 °F 81% 29.71 in 2.5 mi North 4.6 mph - 0.00 in Snow Light Snow
5:32 PM 25.0 °F - 19.9 °F 81% 29.67 in 3.0 mi Calm Calm - 0.01 in Snow Light Snow
5:54 PM 25.0 °F 20.7 °F 19.9 °F 81% 29.71 in 3.0 mi West 3.5 mph - 0.01 in Snow Light Snow
6:45 PM 24.1 °F 18.2 °F 19.9 °F 84% 29.71 in 4.0 mi West 4.6 mph - 0.00 in Snow Light Snow
6:54 PM 24.1 °F 18.2 °F 19.0 °F 81% 29.75 in 5.0 mi West 4.6 mph - 0.00 in Snow Light Snow
7:34 PM 21.9 °F 15.7 °F 18.0 °F 85% 29.75 in 2.0 mi WNW 4.6 mph - 0.00 in Snow Light Snow
7:41 PM 21.9 °F 15.7 °F 18.0 °F 85% 29.76 in 1.5 mi Variable 4.6 mph - 0.00 in Snow Light Snow
7:54 PM 21.9 °F 15.7 °F 17.1 °F 82% 29.81 in 1.5 mi NW 4.6 mph - 0.01 in Snow Light Snow
8:21 PM 21.0 °F 16.2 °F 16.0 °F 81% 29.79 in 1.2 mi Variable 3.5 mph - 0.00 in Snow Light Snow
8:44 PM 19.9 °F 14.9 °F 16.0 °F 85% 29.80 in 1.0 mi WNW 3.5 mph - 0.01 in Snow Light Snow
8:54 PM 19.9 °F 13.4 °F 15.1 °F 81% 29.84 in 1.0 mi NW 4.6 mph - 0.02 in Snow Light Snow
9:06 PM 19.9 °F 13.4 °F 15.1 °F 81% 29.81 in 1.2 mi West 4.6 mph - 0.00 in Snow Light Snow
9:34 PM 19.0 °F 12.3 °F 15.1 °F 85% 29.84 in 1.8 mi WNW 4.6 mph - 0.00 in Snow Light Snow
9:43 PM 19.0 °F 12.3 °F 14.0 °F 81% 29.85 in 2.5 mi West 4.6 mph - 0.00 in Snow Light Snow
9:52 PM 19.4 °F 12.8 °F 14.0 °F 80% 29.85 in 2.0 mi West 4.6 mph - 0.00 in Snow Light Snow
9:54 PM 19.0 °F 12.3 °F 14.0 °F 81% 29.89 in 2.0 mi West 4.6 mph - 0.00 in Snow Light Snow
10:08 PM 18.0 °F 11.1 °F 12.9 °F 81% 29.87 in 3.0 mi WNW 4.6 mph - 0.00 in Snow Light Snow
10:26 PM 17.1 °F 7.6 °F 12.0 °F 81% 29.89 in 3.0 mi NW 6.9 mph - 0.00 in Snow Light Snow
10:49 PM 17.6 °F 12.3 °F 10.4 °F 73% 29.91 in 7.0 mi WNW 3.5 mph - 0.00 in   Overcast
10:54 PM 17.1 °F 11.7 °F 10.9 °F 77% 29.95 in 8.0 mi West 3.5 mph - 0.00 in   Overcast
11:10 PM 17.1 °F 7.6 °F 10.0 °F 74% 29.93 in 10.0 mi WNW 6.9 mph - N/A   Overcast
11:28 PM 16.0 °F 7.4 °F 9.0 °F 74% 29.95 in 10.0 mi NW 5.8 mph - N/A   Overcast
11:54 PM 16.0 °F 10.4 °F 9.0 °F 74% 30.00 in 8.0 mi WNW 3.5 mph - N/A   Overcast